This demonstration page uses our WeatherBlox Daily Observations layout. Learn more.

Left ArrowRight Arrow

41.86663, -103.66717

Hourly Observations for July 14, 2020

Temp ( °F °C ) Dew Point ( °F °C ) Humidity (%) Winds ( mph kmh ) Pressure ( in mb ) Visibility ( mi km ) Precip ( " mm )
12:53 am 00:53 Clear 61 16.1 57 13.9 87 87 E 7 11 29.73 1007 10 16 N/A
1:53 am 01:53 Clear 62 16.7 56 13.3 80 80 NE 12 19 29.74 1007 10 16 N/A
2:53 am 02:53 Clear 63 17.2 58 14.4 84 84 NE 13 20 29.76 1008 10 16 N/A
3:53 am 03:53 Clear 62 16.7 58 14.4 86 86 NE 12 19 29.82 1010 10 16 N/A
4:53 am 04:53 Clear 60 15.6 51 10.6 72 72 NE 18 30 29.86 1011 10 16 N/A
5:53 am 05:53 Mostly Cloudy 59 15 50 10 72 72 NE 21 33 29.92 1013 10 16 N/A
6:53 am 06:53 Cloudy 60 15.6 49 9.4 67 67 ENE 15 24 29.96 1015 10 16 N/A
7:53 am 07:53 Cloudy 60 15.6 50 10 70 70 ENE 12 19 29.98 1015 10 16 N/A
8:53 am 08:53 Cloudy 62 16.7 50 10 65 65 E 12 19 30.01 1016 10 16 N/A
9:53 am 09:53 Mostly Cloudy 68 20 50 10 53 53 E 15 24 29.99 1016 10 16 N/A
10:53 am 10:53 Mostly Cloudy 71 21.7 50 10 47 47 ESE 14 22 29.99 1016 10 16 N/A
11:53 am 11:53 Partly Cloudy 72 22.2 51 10.6 48 48 SE 13 20 29.98 1015 10 16 N/A
12:53 pm 12:53 Sunny 74 23.3 52 11.1 46 46 E 12 19 29.97 1015 10 16 N/A
1:53 pm 13:53 Sunny 75 23.9 53 11.7 46 46 E 7 11 29.95 1014 10 16 N/A
2:53 pm 14:53 Sunny 78 25.6 53 11.7 42 42 SE 13 20 29.92 1013 10 16 N/A
3:53 pm 15:53 Sunny 81 27.2 54 12.2 39 39 E 13 20 29.90 1013 10 16 N/A
4:53 pm 16:53 Sunny 80 26.7 54 12.2 41 41 ESE 13 20 29.91 1013 10 16 N/A
5:53 pm 17:53 Sunny 80 26.7 54 12.2 41 41 ESE 13 20 29.91 1013 10 16 N/A
6:53 pm 18:53 Sunny 79 26.1 55 12.8 44 44 E 13 20 29.93 1013 10 16 N/A
7:53 pm 19:53 Mostly Sunny 75 23.9 56 13.3 52 52 undefined N/A 29.93 1014 10 16 N/A
8:53 pm 20:53 Partly Cloudy 71 21.7 56 13.3 59 59 ESE 10 17 29.94 1014 10 16 N/A
9:53 pm 21:53 Clear 69 20.6 57 13.9 66 66 ESE 10 17 29.94 1014 10 16 N/A
10:53 pm 22:53 Clear 69 20.6 58 14.4 68 68 ESE 13 20 29.95 1014 10 16 N/A
11:53 pm 23:53 Clear 68 20 58 14.4 70 70 SE 10 17 29.95 1014 10 16 N/A

Powered by AerisWeather